CZ-6A DEB, 60625

Orbit data source: Space-Track

CZ-6A DEB, 60625 is space debris in LEO originally from a launch on Tue, 06 Aug 2024 UTC launched from the Taiyaun Space Center, China (TSC). Debris objects in space refer to the collection of defunct objects orbiting the Earth. Examples of debris include non-operational satellites, rocket bodies, and fragments generated from explosions, collisions, or faulty payload assembly.

Loading next visibility...
Identifier
60625, 2024-140AA
Orbit
LEO
Country
Flag of CNCN / PRC
Related business
Manufacturer
SAST
Mission
Spacecraft
Bus & Motor
Unknown
Mass
Unknown
Launch date (UTC)
2024-08-06 (2 years ago)
Launch vehicle
Unknown
Launch site
Taiyaun Space Center, China (TSC)
Object type
Payload
Rocket body
Debris
Shape & HBR
Unknown shape, 0.2 m
Radar Cross Section
Medium (>0.1 m² and <1 m²)

Expand to show TLE details & history
Last TLE update: 12 hours ago

TLE from 12 hours ago
0 CZ-6A DEB
1 60625U 24140AA  26171.33569161  .00002944  00000-0  76133-3 0  9993
2 60625  88.9958 271.0311 0059764 330.5452  29.2390 14.48631060 98371
Epoch: 2026-06-20T08:03Z
TLE epoch observation values (Epoch: 2026-06-20T08:03:23.755Z)
Latitude
-0.00001°
Longitude
-118.36966°
Altitude
696.201 km
Speed
7.527 km/s
True Right ascension
18h 04m 07s
True Declination
0° 00' 00"
Sunlit
Object was in full shadow at epoch
Visualization orbit readout
Latitude
Unknown
Longitude
Unknown
Altitude
Unknown
Speed
Unknown
Apparent Right ascension
Unknown
Apparent Declination
Unknown
Sunlit
N/A
Visualization observer readout
Local Sidereal Time
07:23:32
Azimuth
Unknown
Elevation
Unknown
Doppler factor
Unknown
Orbital elements
Apogee altitude
769.497 km
Perigee altitude
684.57 km
Semi-major axis
7,105.17 km
Eccentricity
0.00598
Inclination
88.9958°
RAAN
271.0311°
Arg. of periapsis
330.5452°
True anomaly
29.57571°
Mean anomaly
29.239°
Eccentric anomaly
29.40713°
Mean motion
3.62394 °/min
Orbital period
99.34 mins
BSTAR
0.00076133
Loading maneuver chart data...
Computing Atmospheric mass density...
Loading historical data...
Loading historical data...
Loading historical data...
Loading historical data...
Loading historical data...
Loading historical data...
Loading historical data...

Documentation

Showing up to 5 results
|